Location: ???? ??
(36.0534°N, 43.5630°E)
Time: 03:21:54
(UTC+00:00)

Envisat - Pass Details

Date: 18 September 2019
Orbit: 764 x 766 km, 98.1° (Epoch: 15 October)

Event Time Altitude Azimuth Distance (km) Brightness Sun altitude
Rises 15:33:48 0° 175° (S) 3,217 6.1 -5.8°
Reaches altitude 10° 15:36:08 10° 178° (S) 2,294 5.4 -6.2°
Maximum altitude 15:41:08 62° 259° (W) 862 3.6 -7.2°
Drops below altitude 10° 15:46:10 10° 340° (NNW) 2,309 5.9 -8.2°
Sets 15:48:31 0° 344° (NNW) 3,238 6.6 -8.7°
